Temp
-9 -9 -8 -9 -9 -8 -8 -8 -8 -8 -8 -8 -8 -7 -7 -7 -7 -7 -7 -7 -8 -8 -8 -8 -8 -8 -8 -8 -8 -8 -8 -8 -8 -8 -7 -7 -8 -7 -7 -7 -7 -7 -8
-9 -9 -9 -9 -8 -8 -8 -9 -8 -8 -8 -8 -8 -7 -7 -8 -7 -7 -7 -7 -8 -8 -8 -8 -8 -8 -8 -8 -8 -7 -8 -8 -8 -8 -7 -7 -8 -7 -7 -7 -7 -8 -8
-9 -9 -9 -9 -9 -9 -8 -9 -9 -8 -8 -8 -8 -8 -8 -8 -7 -7 -7 -7 -8 -8 -8 -8 -8 -8 -8 -8 -8 -8 -8 -8 -8 -7 -7 -7 -8 -7 -7 -7 -8 -8 -8
-10 -9 -9 -9 -9 -9 -9 -9 -9 -9 -8 -8 -8 -8 -8 -8 -8 -7 -7 -7 -8 -8 -8 -8 -8 -8 -8 -8 -8 -8 -8 -8 -8 -7 -7 -7 -7 -7 -7 -7 -8 -8 -8
-10 -10 -9 -9 -9 -9 -9 -9 -9 -9 -9 -9 -9 -8 -8 -8 -8 -8 -7 -7 -7 -8 -8 -8 -8 -8 -8 -8 -8 -8 -8 -8 -8 -8 -7 -8 -7 -7 -8 -8 -8 -8 -8
-11 -10 -10 -10 -9 -10 -10 -9 -9 -9 -9 -9 -9 -8 -8 -8 -8 -8 -8 -7 -7 -8 -8 -8 -8 -8 -8 -8 -8 -8 -8 -8 -8 -8 -7 -7 -7 -8 -8 -8 -8 -8 -8
-11 -11 -10 -10 -10 -10 -10 -10 -9 -9 -9 -9 -9 -9 -9 -8 -8 -8 -8 -8 -8 -8 -8 -8 -8 -8 -8 -8 -8 -8 -8 -8 -8 -8 -7 -7 -8 -8 -8 -8 -8 -8 -8
-12 -11 -10 -11 -10 -10 -10 -10 -10 -9 -9 -9 -9 -9 -9 -9 -9 -8 -8 -8 -8 -8 -8 -8 -8 -8 -8 -8 -8 -8 -8 -8 -8 -8 -8 -8 -8 -8 -8 -8 -8 -8 -9
-12 -11 -11 -11 -11 -11 -10 -10 -10 -10 -10 -10 -10 -9 -9 -9 -9 -9 -8 -8 -8 -8 -8 -8 -8 -8 -8 -8 -8 -8 -8 -8 -8 -8 -8 -8 -8 -8 -8 -8 -8 -9 -9
-12 -12 -11 -12 -11 -11 -11 -10 -10 -10 -10 -10 -10 -10 -9 -9 -9 -9 -9 -9 -9 -8 -8 -9 -8 -9 -8 -8 -8 -8 -8 -8 -8 -8 -8 -8 -8 -8 -8 -8 -9 -9 -9
-12 -12 -11 -12 -11 -12 -11 -11 -10 -10 -10 -10 -10 -10 -10 -10 -9 -9 -9 -9 -9 -9 -9 -9 -9 -9 -8 -8 -8 -8 -8 -8 -8 -8 -8 -8 -8 -8 -8 -9 -9 -9 -9
-12 -12 -12 -11 -11 -11 -11 -11 -10 -10 -11 -11 -10 -10 -10 -10 -10 -9 -9 -9 -9 -9 -9 -9 -9 -9 -9 -8 -9 -8 -8 -8 -8 -8 -8 -8 -8 -8 -8 -9 -9 -9 -9
-13 -12 -12 -12 -12 -11 -11 -11 -10 -10 -10 -10 -10 -11 -10 -10 -10 -10 -10 -9 -9 -9 -9 -9 -9 -9 -9 -9 -9 -9 -9 -8 -8 -8 -8 -8 -8 -8 -8 -9 -9 -9 -9
-12 -12 -13 -12 -12 -12 -11 -11 -11 -11 -11 -11 -11 -11 -11 -10 -10 -10 -10 -10 -10 -10 -10 -9 -9 -9 -9 -9 -9 -9 -9 -8 -8 -8 -8 -8 -8 -8 -9 -9 -9 -9 -8
-13 -13 -13 -12 -12 -12 -12 -11 -11 -11 -11 -11 -11 -11 -11 -11 -10 -10 -10 -10 -10 -10 -10 -10 -10 -10 -9 -9 -9 -9 -9 -9 -8 -8 -8 -8 -8 -9 -9 -9 -9 -8 -8
-13 -13 -13 -13 -13 -13 -13 -12 -12 -11 -11 -11 -11 -11 -11 -11 -11 -11 -11 -10 -10 -10 -10 -10 -10 -10 -10 -9 -9 -9 -9 -9 -9 -8 -8 -9 -9 -9 -9 -9 -9 -8 -8
-13 -13 -13 -13 -13 -12 -12 -13 -12 -11 -11 -11 -11 -11 -11 -11 -11 -11 -11 -11 -11 -11 -10 -10 -10 -10 -10 -10 -9 -9 -9 -9 -9 -9 -9 -9 -9 -9 -9 -9 -9 -9 -8
-13 -13 -13 -13 -13 -12 -12 -12 -12 -12 -11 -11 -11 -11 -11 -11 -11 -11 -11 -11 -11 -11 -11 -11 -10 -10 -10 -10 -9 -9 -9 -9 -9 -9 -9 -9 -9 -9 -9 -9 -9 -9 -9
-13 -13 -13 -13 -13 -13 -13 -12 -13 -12 -12 -11 -11 -11 -11 -11 -11 -11 -11 -11 -10 -10 -11 -11 -10 -10 -10 -10 -10 -9 -9 -9 -9 -9 -9 -9 -9 -9 -9 -9 -9 -9 -9
-14 -13 -13 -13 -13 -13 -13 -13 -13 -13 -12 -11 -11 -11 -11 -11 -11 -11 -11 -11 -11 -10 -10 -10 -10 -10 -10 -10 -10 -10 -10 -10 -9 -9 -9 -9 -9 -9 -9 -9 -9 -9 -9
-14 -13 -14 -13 -13 -13 -13 -13 -13 -13 -13 -12 -11 -11 -11 -11 -11 -11 -11 -11 -11 -11 -10 -11 -11 -10 -10 -10 -10 -10 -10 -10 -10 -10 -10 -10 -9 -10 -9 -9 -9 -9 -9
-14 -13 -10 -12 -12 -13 -13 -13 -13 -13 -13 -12 -12 -11 -11 -11 -11 -11 -11 -11 -11 -11 -11 -11 -11 -11 -11 -10 -10 -10 -10 -10 -10 -10 -10 -10 -9 -10 -10 -9 -9 -9 -9
-14 -12 -12 -12 -12 -12 -13 -13 -13 -13 -13 -12 -12 -11 -11 -11 -11 -11 -11 -11 -11 -11 -11 -11 -11 -11 -11 -11 -11 -10 -10 -10 -10 -10 -10 -10 -10 -10 -10 -10 -9 -10 -10
-14 -14 -13 -12 -12 -13 -13 -13 -13 -12 -12 -13 -14 -12 -12 -12 -11 -11 -12 -12 -11 -11 -11 -11 -11 -11 -11 -11 -11 -11 -10 -10 -10 -10 -10 -10 -10 -10 -10 -10 -10 -10 -10
-15 -14 -14 -13 -13 -13 -13 -13 -12 -12 -12 -13 -13 -13 -12 -12 -12 -12 -11 -12 -11 -11 -11 -11 -11 -11 -11 -11 -11 -11 -11 -10 -10 -11 -10 -10 -10 -10 -10 -10 -10 -10 -10
-15 -14 -14 -14 -14 -11 -13 -13 -13 -12 -12 -13 -12 -13 -13 -12 -12 -12 -12 -12 -12 -12 -11 -11 -11 -11 -11 -11 -11 -11 -11 -11 -11 -11 -11 -11 -10 -10 -10 -10 -10 -10 -10
Height
5838 5841 5843 5845 5847 5850 5853 5855 5858 5861 5862 5862 5865 5867 5870 5870 5871 5872 5874 5877 5879 5881 5883 5885 5887 5889 5891 5892 5892 5892 5893 5892 5892 5891 5891 5891 5891 5891 5889 5888 5886 5885 5882
5836 5837 5839 5841 5843 5847 5849 5851 5855 5858 5860 5861 5864 5866 5868 5870 5871 5871 5874 5876 5879 5881 5884 5886 5888 5890 5891 5893 5893 5894 5894 5894 5894 5893 5893 5893 5893 5893 5891 5890 5888 5886 5884
5830 5833 5836 5837 5840 5843 5846 5848 5852 5856 5857 5860 5862 5865 5867 5869 5870 5870 5873 5876 5879 5882 5885 5887 5889 5891 5892 5894 5894 5895 5896 5896 5896 5895 5895 5895 5895 5894 5892 5891 5890 5887 5884
5825 5829 5831 5833 5837 5838 5842 5845 5849 5853 5856 5857 5860 5863 5866 5868 5868 5870 5873 5876 5879 5882 5885 5887 5890 5891 5893 5894 5895 5896 5897 5897 5897 5896 5897 5897 5896 5895 5894 5892 5891 5888 5886
5820 5823 5826 5829 5831 5834 5837 5841 5845 5849 5853 5855 5858 5861 5865 5867 5867 5870 5872 5876 5879 5882 5885 5888 5890 5892 5893 5894 5895 5896 5897 5898 5898 5898 5898 5898 5898 5897 5896 5894 5892 5890 5888
5814 5818 5821 5823 5827 5830 5834 5837 5841 5845 5850 5852 5855 5858 5863 5865 5866 5869 5872 5875 5878 5881 5884 5887 5889 5891 5893 5894 5895 5897 5897 5898 5899 5899 5899 5899 5899 5898 5897 5895 5893 5891 5889
5808 5811 5815 5817 5821 5825 5829 5833 5838 5842 5845 5849 5853 5856 5859 5863 5864 5867 5871 5874 5877 5880 5883 5886 5888 5891 5893 5894 5896 5897 5898 5899 5900 5900 5900 5900 5900 5899 5898 5896 5894 5892 5891
5802 5805 5809 5812 5816 5819 5824 5829 5832 5837 5842 5845 5849 5853 5857 5861 5863 5865 5870 5872 5876 5879 5882 5884 5887 5890 5892 5894 5896 5897 5899 5900 5901 5901 5901 5901 5901 5900 5899 5897 5896 5894 5892
5794 5799 5804 5807 5811 5814 5820 5824 5829 5834 5838 5841 5846 5850 5854 5858 5862 5864 5868 5871 5875 5878 5880 5883 5886 5889 5891 5893 5896 5897 5899 5900 5901 5902 5902 5902 5902 5901 5900 5898 5897 5895 5893
5788 5792 5798 5802 5806 5810 5815 5820 5825 5830 5836 5837 5842 5847 5851 5855 5859 5862 5866 5869 5872 5876 5879 5882 5885 5888 5890 5893 5895 5897 5899 5900 5901 5901 5902 5902 5902 5901 5900 5899 5897 5896 5894
5782 5788 5793 5797 5802 5806 5809 5816 5821 5827 5832 5834 5839 5844 5848 5852 5856 5860 5864 5866 5870 5874 5876 5880 5884 5887 5890 5892 5894 5897 5899 5900 5901 5902 5902 5903 5903 5902 5900 5899 5897 5896 5894
5778 5784 5788 5793 5797 5802 5805 5811 5817 5822 5828 5831 5835 5841 5845 5848 5853 5858 5861 5864 5868 5871 5875 5878 5882 5885 5888 5891 5894 5896 5898 5900 5901 5902 5902 5903 5902 5902 5900 5899 5898 5896 5894
5771 5775 5782 5787 5792 5796 5800 5805 5812 5818 5823 5827 5831 5836 5841 5844 5851 5856 5859 5863 5865 5869 5873 5876 5881 5884 5887 5890 5893 5896 5898 5900 5901 5902 5902 5902 5902 5901 5900 5899 5898 5896 5894
5759 5767 5773 5780 5785 5789 5794 5800 5807 5813 5818 5822 5827 5831 5838 5842 5847 5852 5856 5859 5863 5867 5871 5875 5878 5882 5885 5889 5892 5895 5897 5899 5901 5901 5902 5902 5902 5901 5900 5899 5898 5896 5895
5749 5756 5763 5771 5778 5783 5790 5795 5801 5807 5812 5817 5821 5826 5833 5839 5843 5848 5852 5856 5861 5865 5869 5872 5876 5880 5884 5887 5891 5894 5896 5898 5899 5900 5901 5901 5901 5900 5899 5898 5897 5896 5895
5738 5744 5753 5761 5769 5776 5783 5790 5796 5801 5807 5811 5816 5822 5828 5834 5839 5843 5848 5852 5858 5861 5865 5870 5874 5878 5882 5885 5889 5892 5894 5896 5897 5898 5899 5900 5900 5899 5899 5898 5897 5896 5895
5724 5735 5741 5751 5760 5768 5775 5783 5789 5795 5800 5805 5810 5816 5822 5827 5834 5839 5844 5849 5853 5858 5863 5867 5872 5876 5880 5884 5887 5890 5892 5894 5896 5897 5898 5898 5898 5898 5897 5897 5897 5896 5895
5710 5716 5731 5740 5748 5758 5766 5773 5780 5788 5793 5799 5805 5810 5816 5822 5828 5834 5839 5844 5849 5855 5859 5864 5868 5872 5877 5881 5884 5888 5890 5892 5893 5895 5895 5896 5896 5896 5896 5896 5896 5895 5895
5699 5710 5716 5726 5736 5745 5756 5762 5769 5779 5786 5793 5798 5804 5809 5816 5822 5828 5834 5840 5845 5850 5855 5860 5865 5870 5874 5878 5881 5885 5887 5889 5891 5892 5893 5894 5894 5893 5893 5894 5894 5894 5894
5688 5702 5710 5716 5726 5736 5746 5752 5759 5768 5777 5784 5791 5797 5803 5810 5817 5823 5829 5835 5841 5846 5852 5857 5862 5866 5870 5874 5878 5881 5883 5885 5887 5889 5890 5891 5891 5891 5891 5892 5892 5892 5893
5677 5690 5699 5704 5715 5725 5732 5741 5751 5761 5770 5778 5784 5791 5797 5804 5811 5818 5824 5830 5836 5842 5846 5851 5856 5862 5866 5870 5873 5876 5879 5882 5884 5886 5887 5888 5888 5888 5889 5889 5890 5890 5891
5663 5677 5675 5692 5702 5714 5723 5734 5744 5756 5764 5770 5778 5784 5791 5798 5804 5812 5818 5824 5830 5836 5842 5847 5852 5857 5861 5865 5868 5872 5875 5878 5880 5882 5883 5885 5885 5886 5886 5887 5888 5888 5890
5650 5662 5665 5674 5667 5698 5713 5722 5733 5743 5751 5755 5764 5774 5783 5790 5798 5805 5812 5818 5823 5830 5836 5841 5846 5851 5855 5859 5864 5867 5870 5873 5875 5877 5879 5880 5881 5882 5883 5884 5885 5886 5887
5634 5647 5660 5672 5678 5694 5699 5710 5723 5734 5745 5756 5763 5770 5778 5784 5791 5798 5804 5811 5817 5823 5829 5835 5840 5845 5850 5855 5858 5861 5865 5867 5870 5872 5874 5876 5877 5878 5880 5881 5882 5883 5884
5624 5637 5647 5662 5665 5676 5693 5703 5714 5724 5734 5745 5753 5761 5769 5777 5784 5791 5797 5804 5810 5816 5822 5828 5834 5839 5844 5848 5851 5855 5858 5861 5864 5867 5869 5871 5872 5874 5876 5877 5878 5879 5880
5614 5626 5637 5650 5665 5672 5678 5694 5708 5718 5727 5736 5744 5752 5761 5769 5777 5783 5790 5796 5803 5810 5816 5821 5826 5831 5836 5840 5844 5849 5852 5855 5858 5861 5864 5866 5868 5870 5871 5873 5874 5875 5875
Wind_Speed
27 25 25 23 21 22 20 17 18 16 13 11 10 10 11 9 12 14 14 15 19 20 18 18 19 19 16 13 12 11 12 13 17 18 20 20 19 17 18 20 20 20 21
26 27 26 20 22 24 22 19 19 18 15 13 11 11 12 11 13 15 16 16 18 21 19 18 19 18 15 12 11 10 10 12 16 18 18 18 16 14 17 19 18 18 19
26 27 26 20 24 24 25 21 20 19 18 16 14 14 14 13 14 17 17 17 18 20 19 17 18 17 14 11 10 9 9 11 15 17 17 15 13 14 16 16 16 17 18
26 26 27 25 22 25 26 23 21 21 20 18 17 17 17 16 16 18 17 18 19 21 20 17 17 15 13 10 9 9 8 11 14 16 14 13 13 14 15 15 16 17 18
33 30 28 24 22 26 27 27 24 23 22 20 19 19 19 18 18 18 19 20 19 20 21 18 17 15 13 10 8 9 8 11 14 14 11 12 13 13 13 14 16 17 17
32 33 32 27 26 27 25 28 26 25 23 22 22 21 21 21 20 19 20 21 20 18 21 19 16 15 12 10 8 10 8 13 14 12 10 12 12 12 13 13 15 16 17
30 32 32 28 27 30 28 29 28 27 26 25 23 23 23 22 22 20 20 21 20 17 17 20 18 14 12 10 11 10 12 15 12 10 10 10 10 10 11 13 15 15 17
30 33 31 30 29 30 30 29 31 30 29 27 25 25 25 24 24 23 20 20 20 17 16 18 19 16 13 11 12 11 16 13 10 10 9 9 9 9 12 13 13 14 16
35 35 32 31 33 29 30 31 31 32 31 29 28 26 26 25 25 25 23 22 20 19 16 17 18 17 14 13 12 15 15 12 10 10 8 7 7 10 12 13 12 14 15
36 36 35 32 32 31 31 31 30 32 33 31 28 27 27 26 26 25 24 23 21 20 19 19 18 17 16 16 14 18 14 12 9 7 7 5 7 10 12 11 11 14 15
36 35 36 35 32 31 31 31 32 34 33 31 31 29 28 27 27 25 24 24 22 20 20 20 20 19 19 16 20 18 14 11 8 5 5 5 7 9 10 9 11 13 15
36 36 37 36 33 33 33 32 33 33 34 33 32 29 31 30 29 27 25 24 22 22 21 21 21 21 18 21 20 17 14 10 6 4 3 4 6 9 10 8 12 13 14
39 41 39 38 35 34 34 32 33 33 34 34 33 33 33 32 29 27 25 23 23 24 24 24 24 21 22 23 20 17 13 9 5 3 2 3 5 9 10 8 11 12 12
48 45 43 41 39 34 36 34 32 32 33 33 35 36 33 32 30 29 28 28 26 25 25 25 23 24 25 23 21 16 12 8 4 1 0 2 5 8 10 7 10 10 11
53 50 49 45 44 37 33 35 34 34 34 33 35 38 35 34 33 32 31 30 29 27 26 25 25 25 24 23 20 16 12 8 4 2 1 2 5 8 9 7 9 8 9
58 55 53 50 48 44 35 33 35 35 35 36 36 39 39 37 37 35 34 32 30 29 29 28 28 26 24 23 19 15 11 8 4 2 2 4 7 9 8 6 7 6 8
62 59 57 52 51 50 42 39 36 38 37 38 37 39 43 42 40 39 36 35 33 32 31 29 27 26 26 24 20 16 12 8 5 4 5 5 8 8 8 6 6 4 6
67 64 60 57 57 53 51 47 40 41 39 37 37 39 45 45 43 42 39 37 35 33 33 31 29 27 26 23 19 16 13 9 7 7 7 7 9 8 8 5 6 2 4
72 68 66 63 62 55 48 49 49 43 41 38 38 40 45 47 46 45 43 39 37 35 33 32 30 28 27 24 21 17 14 11 10 9 10 9 10 9 8 6 6 3 1
74 70 68 66 65 58 55 49 49 48 43 40 40 41 45 49 49 47 46 42 38 36 34 31 30 28 27 24 21 18 16 14 13 12 12 11 11 11 8 7 7 4 3
76 74 70 71 68 64 61 57 54 51 45 40 38 39 44 50 50 49 47 45 41 38 36 35 32 29 27 25 23 21 20 17 16 15 14 13 13 12 10 8 8 6 5
81 77 65 77 73 70 67 59 56 52 46 43 39 38 40 49 51 51 49 47 45 42 39 36 33 31 29 27 26 23 21 19 18 17 16 15 14 13 11 9 9 9 8
82 67 80 74 69 76 70 63 60 58 54 54 49 42 39 44 52 50 52 50 48 45 42 40 37 34 33 31 27 25 24 23 22 21 18 16 15 13 12 11 10 10 11
83 86 82 81 78 80 75 70 66 61 57 52 43 40 39 38 46 50 52 51 49 47 44 41 40 38 35 32 30 29 28 27 24 21 20 19 17 15 14 12 11 12 13
88 84 80 93 55 85 77 73 68 64 59 56 47 45 42 40 40 47 49 51 51 48 46 44 41 39 37 36 35 33 31 29 26 24 23 21 19 18 16 13 12 13 14
88 80 80 76 89 71 75 74 70 67 60 54 55 51 47 44 42 44 47 48 48 48 47 45 44 42 40 38 36 33 32 29 28 26 24 22 21 20 19 16 14 14 15
Wind_Direction
233 234 234 235 229 226 227 227 226 224 219 209 201 193 178 164 152 154 158 155 159 162 156 155 156 151 139 126 107 96 95 91 93 94 93 86 80 70 63 56 51 47 44
232 232 232 228 223 223 221 222 225 220 216 208 199 192 179 175 162 160 162 154 163 163 165 159 160 153 142 131 111 101 102 98 97 96 93 86 77 67 58 51 47 43 42
232 230 230 223 226 229 224 219 217 218 207 203 197 189 183 180 169 164 164 158 163 167 167 162 161 155 148 140 119 108 109 106 104 99 94 86 78 63 55 49 46 41 39
231 231 232 231 234 225 222 219 213 211 205 199 194 187 184 180 175 168 166 162 164 169 166 160 163 157 151 142 124 117 118 114 111 103 97 86 75 61 54 45 43 41 38
234 233 232 226 225 221 216 213 210 207 202 198 191 186 185 184 174 170 169 163 161 173 175 166 165 162 158 143 133 132 127 127 116 109 99 86 72 62 51 40 37 38 39
231 233 234 227 228 222 215 212 206 203 201 197 192 185 186 186 174 172 170 167 162 172 183 178 173 173 163 156 146 140 134 133 125 115 99 83 72 60 45 36 34 39 41
226 225 231 215 213 216 215 209 207 203 198 196 192 186 187 189 178 174 171 171 167 173 180 185 187 186 177 167 156 141 144 139 131 114 96 83 70 54 38 30 36 44 37
222 221 218 210 208 211 212 209 205 202 197 194 193 188 187 190 184 178 174 174 176 178 184 188 191 189 183 175 161 149 151 145 132 112 95 80 65 42 30 30 41 38 25
215 218 216 210 210 209 208 208 205 201 197 191 192 191 188 191 191 184 182 181 185 187 196 192 189 187 185 175 165 157 157 146 133 114 99 85 56 34 27 29 41 26 23
214 217 217 209 214 204 206 207 204 200 199 191 192 189 191 193 193 190 187 188 192 196 199 195 188 181 183 175 168 164 160 146 135 119 103 83 43 30 26 31 32 19 17
213 216 217 211 209 210 202 207 205 205 203 195 194 190 195 195 194 192 189 189 191 194 195 190 187 182 178 177 165 167 157 150 137 119 95 75 41 28 22 28 19 16 14
211 214 216 214 210 210 205 207 207 205 206 203 200 194 195 195 195 191 189 187 187 188 186 185 180 177 180 172 169 166 161 155 134 114 89 54 33 18 16 19 10 11 14
210 214 216 215 211 209 209 206 209 207 207 206 201 195 195 194 194 190 188 185 184 184 179 179 177 179 177 174 173 169 164 156 138 115 73 33 20 10 9 11 6 9 18
208 208 213 213 210 207 210 206 207 207 207 205 202 196 196 195 191 189 190 186 181 180 180 182 183 182 178 178 175 174 172 168 160 151 330 13 5 0 359 359 0 9 19
208 206 209 209 209 204 207 208 207 206 207 204 201 199 195 197 192 189 193 189 187 187 187 185 182 181 182 181 179 180 180 182 189 252 305 4 345 341 344 343 352 11 19
206 205 208 206 207 203 203 204 208 206 206 207 204 201 195 196 196 191 192 189 188 187 187 185 182 184 187 185 186 187 189 195 219 257 257 309 330 325 325 330 342 6 22
205 204 205 206 205 205 200 202 206 207 207 208 207 203 198 193 197 195 193 192 189 188 188 187 190 191 191 192 193 194 199 207 235 250 253 294 321 316 316 313 332 352 25
205 203 206 203 204 205 207 201 202 205 205 208 208 205 202 193 198 197 197 196 193 193 192 193 195 197 197 198 201 206 210 218 242 257 261 289 311 306 304 299 313 323 23
208 203 203 203 203 199 200 211 197 201 204 206 208 206 202 197 199 199 199 201 197 198 198 198 198 200 202 203 208 213 220 233 247 260 264 279 299 294 290 287 301 285 349
208 204 204 204 201 199 200 209 198 197 196 202 207 207 205 200 199 201 200 203 201 201 201 200 202 204 207 210 215 219 229 240 248 254 260 269 290 283 269 276 287 260 265
205 206 207 203 202 201 203 202 202 200 202 202 206 208 206 203 199 202 202 204 203 204 205 206 207 208 212 216 219 224 232 242 249 256 260 265 281 272 251 266 279 255 248
204 205 211 204 209 201 204 202 204 201 205 203 204 208 208 207 205 203 202 206 206 206 209 211 213 215 218 223 227 233 241 246 251 255 254 260 273 262 243 260 269 254 244
204 202 208 207 201 198 201 201 204 200 198 199 198 203 206 208 208 205 205 206 209 210 210 213 216 220 222 227 233 238 242 246 249 251 249 255 263 250 238 255 266 252 242
202 205 207 209 216 205 201 202 204 203 203 201 200 206 209 209 210 208 208 209 211 212 214 217 219 222 227 232 236 241 245 247 247 245 244 253 254 242 235 251 260 253 244
202 205 208 209 207 204 206 205 206 205 204 200 202 203 208 209 209 209 211 212 214 216 218 221 224 227 230 234 238 240 241 242 240 240 244 250 248 240 235 247 258 252 246
202 204 211 210 213 213 204 206 210 208 209 206 206 204 206 211 209 209 212 214 216 218 222 224 227 229 231 231 233 235 237 238 237 239 247 250 246 242 237 245 257 257 251